[[{"header":{"parameterUnit":"m.s-1","parameterCategory":1,"la1":30.2991,"la2":30.254,"lo1":-89.0895,"lo2":-89.0444,"dy":0.0017,"dx":0.0017,"nx":28,"ny":28,"refTime":"2025-08-15T21:00:00:Z","depth":0,"parameterNumber":2,"parameterNumberName":"U-component_of_WINDS"},"data":[0,0,0,0,0,0,0,0,0,0,0,0,0,0,0,0,0,0,0,0,0,0,0,0,0,0,0,0,0,0,0,0,0,0,0,0,0,0,0,0,0,0,0,0,0,0,0,0,0,0,0,0,0,0,0,0,0,0,0.6078,0.6079,0,0.6193,0.6194,0.6195,0.6237,0.6236,0.6236,0.6236,0.6351,0.6355,0.6358,0,0,0,0,0,0,0,0,0,0,0,0,0,0.5895,0.5898,0.6078,0.6079,0.6081,0.6192,0.6194,0.6196,0.6237,0.6236,0.6236,0.6235,0.635,0.6354,0.6358,0,0,0,0,0,0,0,0,0,0,0,0,0,0.5988,0.5899,0.6078,0.6115,0.6119,0.6192,0.6194,0.6196,0.6237,0.6236,0.6236,0.6235,0.6349,0.6354,0.6359,0.6403,0,0,0.6375,0.6377,0,0,0,0,0,0,0,0,0.5983,0.5995,0.6108,0.6112,0.6118,0.62,0.6172,0.6265,0.6237,0.6192,0.6236,0.6235,0.6301,0.631,0.6333,0.6408,0.6413,0.6375,0.6378,0.6381,0.6382,0,0,0,0,0,0,0,0.5977,0.599,0.6123,0.611,0.6115,0.6126,0.6139,0.619,0.6249,0.6196,0.6199,0.6212,0.6304,0.6328,0.6336,0.6415,0.6375,0.638,0.6383,0.6385,0.6535,0.6536,0,0,0,0,0,0,0.5964,0.5985,0.612,0.6127,0.6048,0.613,0.6144,0.6174,0.6248,0.6259,0.6213,0.6214,0.6319,0.633,0.634,0.6398,0.638,0.6385,0.6388,0.6534,0.6535,0.6536,0,0,0,0,0,0,0.596,0.5976,0.6115,0.6057,0.6075,0.6134,0.6167,0.6177,0.6201,0.6261,0.6271,0.6227,0.6319,0.6333,0.6388,0.6403,0.6388,0.6392,0.6533,0.6534,0.6535,0.6513,0,0,0,0,0,0,0.5954,0.5974,0.5991,0.6057,0.6078,0.616,0.6168,0.6179,0.621,0.6212,0.6277,0.6287,0.632,0.638,0.6393,0.641,0.6396,0.6532,0.6533,0.6535,0.6513,0.6513,0.6514,0,0,0,0,0,0.5948,0.5979,0.5991,0.6007,0.61,0.6161,0.6173,0.6211,0.6211,0.6229,0.6268,0.6285,0.6399,0.6385,0.64,0.6419,0.6531,0.6533,0.6535,0.6512,0.6513,0.6514,0,0,0,0,0,0,0.5911,0.5988,0.6003,0.6056,0.6102,0.6168,0.6191,0.621,0.6256,0.6257,0.6302,0.6316,0.6368,0.6399,0.6381,0.6467,0.6466,0.6471,0.6444,0.6445,0.6446,0.6437,0.6401,0,0,0,0,0,0.5909,0.5952,0.6017,0.6058,0.608,0.6132,0.6159,0.6185,0.6234,0.6253,0.6296,0.6343,0.639,0.6419,0.6465,0.6518,0.6533,0.6538,0.6539,0.6539,0.6543,0.6576,0.6579,0.6542,0.6542,0.6542,0,0,0.5905,0.5953,0.5977,0.6051,0.609,0.6134,0.6147,0.6192,0.6225,0.626,0.6315,0.6348,0.6403,0.6458,0.6484,0.6485,0.6557,0.6542,0.6542,0.6545,0.6578,0.6581,0.6584,0.6544,0.6543,0.6543,0,0,0.5921,0.5961,0.6001,0.604,0.6099,0.6134,0.6143,0.6207,0.6231,0.6287,0.6315,0.6355,0.6434,0.6473,0.6503,0.6539,0.6557,0.6552,0.6556,0.6587,0.659,0.6593,0.6606,0.6611,0.6556,0.6556,0.6556,0,0.5909,0.5976,0.6018,0.6063,0.6096,0.6131,0.6172,0.6208,0.6278,0.63,0.6301,0.6404,0.6443,0.6508,0.6517,0.654,0.6553,0.6545,0.6586,0.6589,0.6592,0.6606,0.6611,0.6555,0.6555,0.6555,0.6555,0,0.5959,0.6006,0.6031,0.61,0.6136,0.6178,0.6227,0.6258,0.6282,0.6317,0.6375,0.6424,0.6482,0.65,0.6522,0.6569,0.6569,0.6577,0.6578,0.6594,0.6608,0.6614,0.6554,0.6554,0.6554,0.6555,0,0,0.5952,0.6047,0.6056,0.6089,0.6158,0.6195,0.624,0.6298,0.6325,0.6373,0.6413,0.6481,0.6491,0.6525,0.6553,0.658,0.6607,0.6586,0.6588,0.6589,0.6664,0.6657,0.6662,0.662,0.6621,0.6622,0.6659,0,0.5978,0.6061,0.6101,0.6166,0.6211,0.6247,0.6287,0.6334,0.6368,0.6412,0.645,0.6498,0.6506,0.6528,0.6556,0.6597,0.6623,0.6595,0.6658,0.6659,0.6642,0.6669,0.6661,0.6694,0.6665,0.6666,0.6666,0,0.6018,0.6068,0.6138,0.6206,0.6226,0.626,0.6319,0.6359,0.6415,0.6438,0.6478,0.6506,0.6556,0.6554,0.6625,0.6605,0.6634,0.6658,0.666,0.6667,0.6663,0.6677,0.6705,0.671,0.6675,0.6674,0.6674,0,0.6007,0.6093,0.6146,0.6173,0.6253,0.6277,0.6311,0.6366,0.6399,0.645,0.6473,0.6528,0.6559,0.6602,0.6644,0.6639,0.6711,0.6712,0.6733,0.6732,0.6745,0.6744,0.6779,0.6763,0.6763,0.6763,0.6763,0,0.6031,0.6073,0.6143,0.6176,0.6224,0.6272,0.6318,0.6355,0.6404,0.6446,0.648,0.6518,0.6572,0.6617,0.6651,0.6705,0.6719,0.6739,0.6748,0.6736,0.6734,0.6755,0.6754,0.6765,0.6764,0.6764,0.6764,0,0.6027,0.6075,0.6136,0.6208,0.6227,0.626,0.6321,0.6355,0.6393,0.6445,0.646,0.6519,0.6574,0.6621,0.6694,0.6717,0.6773,0.6783,0.6754,0.6759,0.6777,0.6775,0.6826,0.6836,0.6814,0.6814,0.6814,0,0.6039,0.6072,0.6148,0.6179,0.6213,0.6262,0.6297,0.6346,0.6381,0.6449,0.6475,0.6533,0.6582,0.6669,0.6718,0.6775,0.6787,0.6801,0.6795,0.6783,0.6788,0.6785,0.679,0.6801,0.6801,0.6801,0.6801,0,0.6055,0.6079,0.6128,0.6187,0.6229,0.6277,0.6326,0.635,0.6408,0.6446,0.6504,0.6542,0.6618,0.6676,0.6738,0.6774,0.6797,0.6803,0.6811,0.6799,0.6781,0.6792,0.6755,0.6801,0.6801,0.6801,0.6801,0.6801,0.606,0.6093,0.6152,0.6207,0.625,0.6296,0.6332,0.6376,0.6425,0.6491,0.6517,0.6577,0.6634,0.6721,0.6757,0.6805,0.6808,0.6819,0.6822,0.6824,0.6823,0.6774,0.6816,0.6816,0.6816,0.6816,0.6816,0,0.6079,0.612,0.6171,0.624,0.6284,0.6304,0.6361,0.6396,0.6448,0.65,0.6549,0.6616,0.6674,0.6729,0.6789,0.6817,0.6829,0.6831,0.6829,0.6838,0.6816,0.6803,0.682,0.682,0.682,0.682,0.682,0.682,0.6094,0.6151,0.6182,0.6261,0.6301,0.6361,0.6392,0.6435,0.6477,0.6552,0.66,0.6636,0.669,0.6755,0.6809,0.6824,0.6845,0.6844,0.6862,0.684,0.6839,0.6838,0.6826,0.6848,0.6848,0.688,0.688,0.688]},{"header":{"parameterUnit":"m.s-1","parameterCategory":1,"la1":30.2991,"la2":30.254,"lo1":-89.0895,"lo2":-89.0444,"dy":0.0017,"dx":0.0017,"nx":28,"ny":28,"refTime":"2025-08-15T21:00:00:Z","depth":0,"parameterNumber":3,"parameterNumberName":"V-component_of_WINDS"},"data":[0,0,0,0,0,0,0,0,0,0,0,0,0,0,0,0,0,0,0,0,0,0,0,0,0,0,0,0,0,0,0,0,0,0,0,0,0,0,0,0,0,0,0,0,0,0,0,0,0,0,0,0,0,0,0,0,0,0,-1.2199,-1.2201,0,-1.2347,-1.2349,-1.235,-1.239,-1.239,-1.2389,-1.2388,-1.2533,-1.2538,-1.2542,0,0,0,0,0,0,0,0,0,0,0,0,0,-1.1946,-1.195,-1.2199,-1.2201,-1.2203,-1.2347,-1.2349,-1.2351,-1.2391,-1.239,-1.2388,-1.2388,-1.2532,-1.2537,-1.2543,0,0,0,0,0,0,0,0,0,0,0,0,0,-1.2071,-1.1952,-1.2199,-1.224,-1.2245,-1.2346,-1.2349,-1.2351,-1.2391,-1.2389,-1.2388,-1.2387,-1.253,-1.2537,-1.2543,-1.2612,0,0,-1.2565,-1.2568,0,0,0,0,0,0,0,0,-1.2064,-1.208,-1.2232,-1.2237,-1.2244,-1.2349,-1.2313,-1.2438,-1.2391,-1.2335,-1.2388,-1.2386,-1.2472,-1.2484,-1.2514,-1.2619,-1.2625,-1.2565,-1.257,-1.2573,-1.2575,0,0,0,0,0,0,0,-1.2055,-1.2074,-1.2257,-1.2234,-1.2241,-1.2249,-1.2266,-1.2337,-1.2409,-1.234,-1.2343,-1.2361,-1.2475,-1.2508,-1.2518,-1.2627,-1.2565,-1.2571,-1.2576,-1.2578,-1.2794,-1.2795,0,0,0,0,0,0,-1.204,-1.2066,-1.2253,-1.2262,-1.2149,-1.2255,-1.2273,-1.2316,-1.2408,-1.2421,-1.2362,-1.2362,-1.2496,-1.251,-1.2523,-1.261,-1.2573,-1.2579,-1.2583,-1.2792,-1.2794,-1.2796,0,0,0,0,0,0,-1.2034,-1.2056,-1.2247,-1.2165,-1.219,-1.2261,-1.2309,-1.232,-1.2352,-1.2425,-1.2437,-1.2382,-1.2496,-1.2514,-1.259,-1.2615,-1.2582,-1.2589,-1.2791,-1.2793,-1.2795,-1.2782,0,0,0,0,0,0,-1.2027,-1.2054,-1.2082,-1.2165,-1.2194,-1.2312,-1.231,-1.2324,-1.2365,-1.2367,-1.2447,-1.2459,-1.2496,-1.2579,-1.2597,-1.2624,-1.2594,-1.2789,-1.2792,-1.2794,-1.278,-1.2784,-1.2786,0,0,0,0,0,-1.2018,-1.2071,-1.2083,-1.2105,-1.2231,-1.2314,-1.233,-1.2374,-1.2367,-1.2395,-1.2441,-1.2456,-1.2609,-1.2587,-1.2607,-1.2636,-1.2787,-1.2791,-1.2794,-1.2779,-1.2783,-1.2786,0,0,0,0,0,0,-1.1986,-1.2083,-1.2097,-1.218,-1.2239,-1.2321,-1.2357,-1.2376,-1.2437,-1.2436,-1.2485,-1.2503,-1.2576,-1.2614,-1.2587,-1.2707,-1.2698,-1.2706,-1.268,-1.2684,-1.2687,-1.2676,-1.26,0,0,0,0,0,-1.199,-1.2051,-1.2131,-1.2195,-1.2225,-1.2286,-1.2323,-1.2352,-1.2414,-1.2439,-1.2491,-1.2549,-1.261,-1.2649,-1.2709,-1.2786,-1.2803,-1.2816,-1.2819,-1.2821,-1.2827,-1.287,-1.2876,-1.2807,-1.2807,-1.2807,0,0,-1.1996,-1.2056,-1.2091,-1.2191,-1.224,-1.23,-1.2306,-1.237,-1.2415,-1.2448,-1.2524,-1.2564,-1.2631,-1.2708,-1.2745,-1.2742,-1.285,-1.2826,-1.2827,-1.2832,-1.2874,-1.2881,-1.2886,-1.281,-1.2809,-1.2809,0,0,-1.2038,-1.209,-1.215,-1.22,-1.2274,-1.2315,-1.2329,-1.2409,-1.2437,-1.2515,-1.2541,-1.2593,-1.2698,-1.2745,-1.2783,-1.2844,-1.2859,-1.2862,-1.2876,-1.2918,-1.2923,-1.2928,-1.2949,-1.2956,-1.2867,-1.2867,-1.2867,0,-1.2036,-1.213,-1.2178,-1.2241,-1.2283,-1.2318,-1.2378,-1.2423,-1.2513,-1.254,-1.2537,-1.2669,-1.2717,-1.2805,-1.282,-1.285,-1.2866,-1.2853,-1.2919,-1.2924,-1.293,-1.295,-1.2958,-1.2867,-1.2867,-1.2867,-1.2867,0,-1.2123,-1.2188,-1.2227,-1.2316,-1.2362,-1.2423,-1.2479,-1.252,-1.2544,-1.2584,-1.2662,-1.2721,-1.2794,-1.2817,-1.2841,-1.2909,-1.2905,-1.2909,-1.2901,-1.2935,-1.2956,-1.2964,-1.2867,-1.2867,-1.2867,-1.2867,0,0,-1.215,-1.2265,-1.2278,-1.2319,-1.2404,-1.2454,-1.2516,-1.2589,-1.2624,-1.2684,-1.2736,-1.2824,-1.2829,-1.2872,-1.2901,-1.2937,-1.2981,-1.2937,-1.294,-1.2943,-1.3059,-1.3055,-1.3063,-1.2992,-1.2994,-1.2995,-1.3053,0,-1.2203,-1.2318,-1.2362,-1.2455,-1.2515,-1.2548,-1.2602,-1.2659,-1.2698,-1.2753,-1.2795,-1.2857,-1.2859,-1.2885,-1.2922,-1.2968,-1.3005,-1.2964,-1.304,-1.3042,-1.3022,-1.3074,-1.307,-1.3122,-1.3061,-1.3063,-1.3064,0,-1.228,-1.2344,-1.2443,-1.2521,-1.2548,-1.2596,-1.2667,-1.2719,-1.2784,-1.281,-1.2858,-1.2885,-1.2949,-1.2938,-1.3026,-1.2997,-1.3031,-1.3058,-1.3061,-1.3069,-1.3055,-1.3084,-1.314,-1.3147,-1.3077,-1.3076,-1.3075,0,-1.229,-1.24,-1.2474,-1.2507,-1.26,-1.2633,-1.2673,-1.2737,-1.2778,-1.2839,-1.2866,-1.2933,-1.2969,-1.3019,-1.3063,-1.3051,-1.3147,-1.3139,-1.3169,-1.3168,-1.3188,-1.3186,-1.325,-1.321,-1.321,-1.3209,-1.3209,0,-1.2344,-1.2403,-1.2479,-1.2524,-1.2591,-1.2641,-1.2705,-1.2747,-1.2803,-1.2856,-1.2888,-1.2936,-1.2991,-1.3046,-1.308,-1.3148,-1.3164,-1.3186,-1.3194,-1.3183,-1.318,-1.3205,-1.3203,-1.3212,-1.3211,-1.3211,-1.321,0,-1.2366,-1.2419,-1.2502,-1.2584,-1.2605,-1.2651,-1.272,-1.2764,-1.2805,-1.2871,-1.2889,-1.2952,-1.3018,-1.3067,-1.3152,-1.3175,-1.3247,-1.3256,-1.3226,-1.3231,-1.3258,-1.3254,-1.334,-1.3353,-1.3304,-1.3304,-1.3305,0,-1.2397,-1.2444,-1.2531,-1.257,-1.261,-1.2672,-1.2715,-1.2765,-1.2808,-1.2885,-1.292,-1.2989,-1.3046,-1.315,-1.3202,-1.3267,-1.3277,-1.3303,-1.3287,-1.3274,-1.3277,-1.3274,-1.3278,-1.3304,-1.3305,-1.3305,-1.3305,0,-1.2446,-1.2471,-1.2533,-1.2604,-1.2655,-1.2712,-1.277,-1.2799,-1.286,-1.2906,-1.2975,-1.302,-1.3108,-1.3175,-1.3246,-1.3284,-1.3304,-1.331,-1.332,-1.3309,-1.329,-1.3301,-1.3232,-1.3308,-1.3307,-1.3307,-1.3307,-1.3307,-1.2474,-1.2517,-1.2586,-1.2653,-1.2703,-1.2756,-1.2802,-1.2849,-1.2909,-1.2986,-1.3011,-1.3082,-1.3145,-1.3242,-1.3281,-1.3337,-1.3336,-1.3351,-1.3355,-1.3358,-1.3357,-1.3281,-1.3349,-1.3349,-1.3349,-1.3349,-1.3349,0,-1.2525,-1.2571,-1.2633,-1.2714,-1.2767,-1.2784,-1.2849,-1.2891,-1.2954,-1.3012,-1.3069,-1.3148,-1.3214,-1.3271,-1.3339,-1.3372,-1.3383,-1.3388,-1.3386,-1.3394,-1.3354,-1.3338,-1.3378,-1.3378,-1.3378,-1.3378,-1.3378,-1.3378,-1.2558,-1.2632,-1.2664,-1.2762,-1.2807,-1.2879,-1.2915,-1.2964,-1.3011,-1.3098,-1.3154,-1.3192,-1.3249,-1.3322,-1.3382,-1.3397,-1.342,-1.3423,-1.344,-1.3401,-1.3397,-1.3394,-1.3379,-1.3428,-1.3428,-1.3477,-1.3477,-1.3477]}]]